Location: B
(0.0000°N, 0.0000°E)
Time: 07:35:24
(UTC+01:00)

Daily predictions for brighter satellites

Satellite Brightness Start Highest point End
(mag) Time Altitude Azimuth Time Altitude Azimuth Time Altitude Azimuth
ARIANE 5 DEB (SYLDA) 4.4 18:50:16 10° W 18:54:52 79° N 19:22:02 10° E
ARIANE 5 DEB (SYLDA) 4.4 18:50:17 10° W 18:54:52 79° N 19:22:02 10° E
ARIANE 5 DEB (SYLDA) 4.4 18:50:16 10° W 18:54:53 79° N 19:22:02 10° E
ARIANE 5 DEB (SYLDA) 4.4 18:50:17 10° W 18:54:53 79° N 19:22:02 10° E
Palapa 6 Rocket 4.2 19:02:27 10° W 19:07:40 55° NNW 19:14:09 10° NE
USA 229 DEB 3.7 19:03:00 10° SSW 19:09:44 78° ESE 19:16:27 10° NNE
USA 229 3.7 19:03:06 10° SSW 19:09:51 77° ESE 19:16:33 10° NNE
Cosmos 1461 3.2 19:06:00 10° N 19:10:39 58° ENE 19:15:13 10° SSE
SPOT 3 Rocket 4.5 19:07:06 10° SE 19:11:26 26° ENE 19:15:44 10° NNE
Cosmos 841 Rocket 4.5 19:10:27 10° NNE 19:14:42 25° ENE 19:18:57 10° SE
ARIANE 2 DEBRIS 3.0 19:13:35 10° W 19:17:17 65° S 19:20:43 10° ESE
YAOGAN 1 2.5 19:13:12 10° SSE 19:17:30 69° ENE 19:21:47 10° N
ARIANE 5 R/B 2.1 19:10:31 10° W 19:17:39 58° N 19:19:57 11° ENE
SL-27 R/B 4.3 19:16:45 10° ENE 19:18:01 12° E 19:19:16 10° E
Cosmos 1943 Rocket 3.6 19:18:41 10° SSE 19:22:19 18° ESE 19:25:33 11° ENE
ISS -2.9 19:20:50 10° SW 19:24:00 46° NW 19:27:08 10° NNE
FUSE 4.1 19:19:41 10° WNW 19:25:02 81° SSW 19:30:23 10° ESE
ARIANE 5 DEB (SYLDA) 3.6 19:20:40 10° W 19:30:27 67° S 19:33:07 13° ESE
Cosmos 1441 Rocket 4.1 19:27:54 10° SSW 19:31:48 54° W 19:35:41 10° N
Cosmos 1633 2.5 19:29:19 10° N 19:32:56 62° E 19:36:34 10° SSE
Cosmos 1782 Rocket 3.6 19:29:53 10° N 19:34:10 56° E 19:38:29 10° SSE
Cosmos 1812 4.0 19:35:05 10° SE 19:38:01 21° E 19:38:57 19° ENE
Cosmos 304 Rocket 3.7 19:34:04 10° N 19:38:49 71° ENE 19:43:33 10° SSE
MONITOR-E 4.2 19:37:31 10° S 19:40:35 78° W 19:43:36 10° NNW
METEOR-M 4.2 19:36:30 10° S 19:41:51 81° WSW 19:47:10 10° NNW
Intelsat 5-3 Rocket 2.8 19:42:27 10° SW 19:44:34 22° SSE 19:45:15 19° SE
ALOS 2.2 19:43:17 10° SSE 19:47:56 68° ENE 19:52:32 10° N
Star 37E S/N 40089 3.7 19:46:36 10° SW 19:48:25 60° SSE 19:49:07 37° E
Ariane H10+ 4.2 19:36:25 10° W 19:52:01 66° S 19:55:47 19° ESE
Cosmos 2082 Rocket 4.0 19:57:48 13° ESE 19:57:48 13° ESE 19:58:34 10° ESE
ARIANE 5 DEB (SYLDA) 4.0 19:48:34 10° W 19:54:52 44° S 19:57:17 19° ESE
H-2A R/B 3.5 19:51:23 10° SE 19:54:52 31° E 19:54:53 31° ENE
BREEZE-M DEB (TANK) 4.1 19:54:25 10° SSW 19:58:31 72° ESE 20:09:11 17° NE
ARIANE 5 DEB (SYLDA) 2.5 19:56:57 10° W 19:59:40 85° N 20:03:25 26° E
Cosmos 1777 Rocket 4.0 19:56:40 10° SSW 20:01:57 84° WNW 20:06:45 13° N
Okean 2 Rocket 3.3 20:08:10 10° N 20:12:39 71° W 20:17:08 10° S
ARIANE 5 R/B 2.9 20:11:49 10° W 20:13:01 31° WSW 20:13:01 31° WSW
ARIANE 5 DEB (SYLDA) 4.0 19:43:39 10° W 20:15:58 83° N 20:18:33 39° ENE
Cosmos 1602 3.9 20:12:56 11° N 20:16:35 70° W 20:20:27 10° S
FENGYUN 3A 4.3 20:13:42 10° S 20:19:01 57° WSW 20:24:18 10° NNW
GENESIS II 4.5 20:17:30 10° NNW 20:21:20 65° WSW 20:25:09 10° SSE
Okean 3 3.9 20:18:02 10° SSW 20:22:12 59° W 20:24:23 26° NNW
OAO 2 Rocket 3.7 20:18:30 10° WNW 20:23:36 65° SW 20:26:43 24° SE
Ariane H10+ 3.9 20:24:35 10° WSW 20:27:28 35° S 20:29:05 28° SE
Cosmos 2369 Rocket 3.3 20:23:41 10° SW 20:28:59 41° WNW 20:33:32 14° N
ARIANE 5 DEB (SYLDA) 3.9 20:26:29 10° W 20:29:31 75° N 20:30:34 56° ENE
ARIANE R/B 3.9 20:29:54 10° WNW 20:33:17 38° NNW 20:33:17 38° NNW
Meteor 2-20 Rocket 4.3 20:28:42 10° N 20:34:46 90° WSW 20:40:52 10° S
Cosmos 405 4.1 20:35:24 43° WSW 20:35:24 43° WSW 20:38:33 10° SSW
MOS 1-B Rocket 4.0 20:31:25 10° SSE 20:37:27 71° ENE 20:44:25 10° N
Cosmos 2279 Rocket 3.8 20:32:09 10° S 20:38:21 78° E 20:39:36 58° NNE
Centaur AC-64 4.2 20:35:51 10° SW 20:36:53 18° SW 20:36:53 18° SW
Cosmos 1378 Rocket 4.4 20:34:37 10° SSW 20:38:45 46° W 20:39:50 38° NW
ASTRO E2 3.7 20:36:32 10° WSW 20:39:26 45° WSW 20:39:26 45° WSW
Meteor 1-11 Rocket 4.4 20:44:38 10° NNW 20:50:08 52° W 20:55:34 10° S
Cosmos 540 Rocket 4.2 20:46:53 10° NNW 20:51:50 50° WSW 20:56:47 10° S
Cosmos 1833 Rocket 3.2 20:54:11 50° S 20:54:11 50° S 20:58:18 10° SSE
Cosmos 1943 Rocket 3.7 21:01:02 10° SW 21:05:46 29° WNW 21:07:08 26° NW
ARIANE 5 R/B 3.5 20:07:11 10° W 21:22:32 72° S 21:23:30 67° SE
Cosmos 2082 Rocket 4.2 21:39:12 24° WSW 21:39:12 24° WSW 21:42:41 10° SSW
